Location: Bittkow
(50.3000°N, 19.0000°E)
Time: 12:25:15
(UTC+00:00)

Cosmos 2263 Rocket - Pass Details

Date: 19 September 2020
Orbit: 822 x 850 km, 71.0° (Epoch: 25 October)

Event Time Altitude Azimuth Distance (km) Brightness Sun altitude
Rises 02:37:18 0° 330° (NNW) 3,397 5.3 -17.6°
Reaches altitude 10° 02:39:44 10° 330° (NNW) 2,463 4.6 -17.3°
Maximum altitude 02:45:24 84° 243° (WSW) 855 2.1 -16.4°
Drops below altitude 10° 02:51:04 10° 156° (SSE) 2,464 4.6 -15.6°
Sets 02:53:31 0° 156° (SSE) 3,398 5.4 -15.2°
